Weather History for Montrose, CO

Change the Weather History Date:

Wednesday, February 16, 2011

  Actual Average Record
Temperature  
Mean Temperature 44 °F 33 °F  
Max Temperature 54 °F 45 °F 60 °F (2014)
Min Temperature 34 °F 21 °F 12 °F (2004)
Degree Days  
Heating Degree Days 21 32  
Month to date heating degree days 547  
Since 1 July heating degree days 4352  
Cooling Degree Days 0 0  
Month to date cooling degree days 0  
Year to date cooling degree days 0  
Moisture  
Dew Point 22 °F    
Average Humidity 40    
Maximum Humidity 61    
Minimum Humidity 17    
Precipitation  
Precipitation 0.00 in 0.02 in 0.10 in (2005)
Month to date precipitation 0.29  
Year to date precipitation 0.94  
Sea Level Pressure  
Sea Level Pressure 29.73 in    
Wind  
Wind Speed 11 mph (South)    
Max Wind Speed 25 mph    
Max Gust Speed 39 mph    
Visibility 10 miles    
Events      
T = Trace of Precipitation, MM = Missing Value Source: NWS Daily Summary

Daily Weather History Graph

Daily Weather History Graph

Search for Another Location

Airport:

Trip Planner

Search our weather history database for the weather conditions in past years. The results will help you decide how hot, cold, wet, or windy it might be!

Date:

Astronomy

Feb. 16, 2011 Rise Set
Actual Time 7:01 AM MST 5:50 PM MST
Civil Twilight 6:34 AM MST 6:17 PM MST
Nautical Twilight 6:03 AM MST 6:48 PM MST
Astronomical Twilight 5:32 AM MST 7:19 PM MST
Moon 4:17 PM MST (2/16) 5:38 AM MST (2/16)
Length of Visible Light 11h 43m
Length of Day
10h 49m
Waxing Gibbous, 96% of the Moon is Illuminated
Feb 16
Waxing Gibbous
Feb 18
Full
Feb 24
Last Quarter
Mar 4
New
Mar 12
First Quarter

Hourly Weather History & Observations

Time (MST) Temp. Windchill Dew Point Humidity Pressure Visibility Wind Dir Wind Speed Gust Speed Precip Events Conditions
12:53 AM 34.0 °F 26.6 °F 21.9 °F 61% 29.92 in 10.0 mi SE 9.2 mph - N/A   Clear
1:53 AM 34.0 °F 26.6 °F 21.9 °F 61% 29.88 in 10.0 mi East 9.2 mph - N/A   Clear
2:53 AM 37.0 °F 28.5 °F 19.0 °F 48% 29.83 in 10.0 mi SE 13.8 mph - N/A   Clear
3:53 AM 36.0 °F - 19.9 °F 52% 29.81 in 10.0 mi Calm Calm - N/A   Clear
5:53 AM 39.0 °F 33.4 °F 18.0 °F 43% 29.79 in 10.0 mi ESE 8.1 mph 24.2 mph N/A   Clear
6:53 AM 37.9 °F 34.4 °F 18.0 °F 45% 29.82 in 10.0 mi East 4.6 mph - N/A   Clear
7:53 AM 37.0 °F 31.0 °F 19.0 °F 48% 29.83 in 10.0 mi SSE 8.1 mph - N/A   Clear
8:53 AM 43.0 °F 37.7 °F 18.0 °F 37% 29.84 in 10.0 mi East 9.2 mph - N/A   Partly Cloudy
9:53 AM 53.1 °F - 9.0 °F 17% 29.80 in 10.0 mi SW 21.9 mph 28.8 mph N/A   Clear
10:53 AM 53.1 °F - 10.9 °F 19% 29.80 in 10.0 mi SSW 15.0 mph 24.2 mph N/A   Clear
11:53 AM 53.1 °F - 21.0 °F 29% 29.80 in 10.0 mi WSW 12.7 mph 19.6 mph N/A   Clear
12:53 PM 54.0 °F - 23.0 °F 30% 29.76 in 10.0 mi SSW 10.4 mph - N/A   Clear
1:53 PM 52.0 °F - 27.0 °F 38% 29.73 in 10.0 mi SSW 12.7 mph 23.0 mph N/A   Clear
2:53 PM 52.0 °F - 27.0 °F 38% 29.69 in 10.0 mi SSW 18.4 mph 29.9 mph N/A   Clear
3:53 PM 51.1 °F - 26.1 °F 38% 29.66 in 10.0 mi South 16.1 mph 23.0 mph N/A   Clear
4:53 PM 51.1 °F - 21.9 °F 32% 29.66 in 10.0 mi SSW 13.8 mph 24.2 mph N/A   Clear
5:53 PM 50.0 °F - 19.9 °F 31% 29.63 in 10.0 mi West 4.6 mph - N/A   Clear
6:53 PM 50.0 °F - 24.1 °F 36% 29.62 in 10.0 mi SSW 10.4 mph - N/A   Clear
7:53 PM 51.1 °F - 25.0 °F 36% 29.61 in 10.0 mi SSW 15.0 mph 24.2 mph N/A   Clear
8:53 PM 48.9 °F - 26.1 °F 41% 29.62 in 10.0 mi SW 10.4 mph - N/A   Partly Cloudy
9:53 PM 48.0 °F - 28.9 °F 48% 29.58 in 10.0 mi SSW 13.8 mph - 0.00 in   Clear
10:53 PM 46.9 °F - 28.0 °F 48% 29.60 in 10.0 mi SW 17.3 mph 39.1 mph N/A   Clear
11:53 PM 46.0 °F 37.4 °F 23.0 °F 40% 29.57 in 10.0 mi SSW 25.3 mph 33.4 mph N/A   Clear